CW6144 Weather Reports


Display with metric or nautical units.
time (UTC)temp
F
wind
direction
speed
MPH
gust
MPH
rain 1hr
in
rain 24hr
in
rain mn
in
humidity
%
barometer
mb
20260904011015 83 177 1.0 6.0 0.00 0.00 0.00 60 1016.7
20260904010511 83 176 1.0 4.0 0.00 0.00 0.00 60 1016.6
20260904010028 84 238 1.0 6.0 0.00 0.00 0.00 59 1016.6
20260904005512 84 202 2.0 6.0 0.00 0.00 0.00 59 1016.6
20260904005016 84 155 2.0 6.0 0.00 0.00 0.00 58 1016.7
20260904004530 85 138 2.0 6.0 0.00 0.00 0.00 58 1016.9
20260904004003 85 230 1.0 3.0 0.00 0.00 0.00 57 1016.8
20260904003504 86 210 0.0 5.0 0.00 0.00 0.00 56 1016.8
20260904003013 86 118 1.0 5.0 0.00 0.00 0.00 56 1016.9
20260904002508 86 137 1.0 3.0 0.00 0.00 0.00 55 1016.8
20260904002007 87 151 0.0 5.0 0.00 0.00 0.00 54 1016.7
20260904001535 87 170 0.0 5.0 0.00 0.00 0.00 53 1016.7
20260904001011 88 196 2.0 5.0 0.00 0.00 0.00 52 1016.6
20260904000518 88 207 1.0 3.0 0.00 0.00 0.00 52 1016.5
20260904000030 88 127 1.0 5.0 0.00 0.00 0.00 52 1016.6
20260903235513 88 205 1.0 8.0 0.00 0.00 0.00 51 1016.7
20260903235014 89 171 4.0 8.0 0.00 0.00 0.00 51 1016.8
20260903234531 89 187 1.0 6.0 0.00 0.00 0.00 50 1016.7
20260903234015 89 169 3.0 6.0 0.00 0.00 0.00 49 1016.8
20260903233518 89 204 1.0 7.0 0.00 0.00 0.00 49 1016.6
20260903233036 90 136 2.0 7.0 0.00 0.00 0.00 49 1016.5
20260903232508 90 117 2.0 7.0 0.00 0.00 0.00 48 1016.5
20260903232018 90 172 2.0 9.0 0.00 0.00 0.00 48 1016.7
20260903231542 90 140 4.0 11.0 0.00 0.00 0.00 47 1016.7
20260903231010 90 163 4.0 11.0 0.00 0.00 0.00 47 1016.7
20260903230510 91 195 3.0 8.0 0.00 0.00 0.00 47 1016.6
20260903230022 91 102 3.0 8.0 0.00 0.00 0.00 46 1016.5
20260903225519 91 142 1.0 10.0 0.00 0.00 0.00 46 1016.4
20260903225014 91 169 3.0 10.0 0.00 0.00 0.00 46 1016.6
20260903224538 91 109 3.0 9.0 0.00 0.00 0.00 45 1016.7
20260903224016 92 190 4.0 8.0 0.00 0.00 0.00 45 1016.7
20260903223518 92 142 2.0 6.0 0.00 0.00 0.00 45 1016.7
20260903223039 92 130 3.0 8.0 0.00 0.00 0.00 45 1016.6
20260903222519 92 97 4.0 8.0 0.00 0.00 0.00 46 1016.5
20260903222016 92 202 3.0 10.0 0.00 0.00 0.00 46 1016.4
20260903221535 92 179 3.0 11.0 0.00 0.00 0.00 46 1016.6
20260903221009 92 102 4.0 11.0 0.00 0.00 0.00 46 1016.6
20260903220507 93 162 2.0 7.0 0.00 0.00 0.00 45 1016.6
20260903220028 92 234 4.0 8.0 0.00 0.00 0.00 46 1016.6
20260903215512 92 269 3.0 10.0 0.00 0.00 0.00 46 1016.6
20260903215012 92 146 5.0 12.0 0.00 0.00 0.00 46 1016.4
20260903214536 91 248 5.0 12.0 0.00 0.00 0.00 46 1016.6
20260903214012 91 205 7.0 11.0 0.00 0.00 0.00 47 1016.6
20260903213515 91 170 6.0 11.0 0.00 0.00 0.00 47 1016.7
20260903213034 91 5 2.0 8.0 0.00 0.00 0.00 47 1016.8
20260903212516 91 196 3.0 8.0 0.00 0.00 0.00 47 1016.8
20260903212020 91 311 3.0 12.0 0.00 0.00 0.00 46 1016.7
20260903211542 91 135 7.0 12.0 0.00 0.00 0.00 46 1016.6
20260903211019 91 131 2.0 11.0 0.00 0.00 0.00 47 1016.6
20260903210519 92 183 5.0 11.0 0.00 0.00 0.00 46 1016.9
20260903210019 92 177 6.0 11.0 0.00 0.00 0.00 44 1017.0
20260903205507 93 187 3.0 10.0 0.00 0.00 0.00 44 1017.0
20260903205004 93 185 2.0 10.0 0.00 0.00 0.00 45 1017.0
20260903204503 93 211 5.0 10.0 0.00 0.00 0.00 44 1017.0
20260903204002 93 105 4.0 14.0 0.00 0.00 0.00 45 1016.8
20260903203503 93 126 6.0 14.0 0.00 0.00 0.00 45 1016.8
20260903203007 93 186 7.0 12.0 0.00 0.00 0.00 45 1017.2
20260903202503 93 148 4.0 14.0 0.00 0.00 0.00 45 1017.2
20260903202006 93 222 6.0 14.0 0.00 0.00 0.00 45 1017.3
20260903201506 92 228 4.0 12.0 0.00 0.00 0.00 45 1017.3
20260903201003 92 121 6.0 12.0 0.00 0.00 0.00 46 1017.2
20260903200504 93 116 5.0 11.0 0.00 0.00 0.00 46 1017.2
20260903200004 92 198 5.0 13.0 0.00 0.00 0.00 48 1017.0
20260903195503 92 132 3.0 13.0 0.00 0.00 0.00 48 1017.1
20260903195003 92 145 6.0 12.0 0.00 0.00 0.00 46 1017.3
20260903194508 92 180 6.0 12.0 0.00 0.00 0.00 46 1017.4
20260903194003 92 152 4.0 13.0 0.00 0.00 0.00 47 1017.4
20260903193504 92 188 6.0 15.0 0.00 0.00 0.00 47 1017.5
20260903193011 92 144 6.0 16.0 0.00 0.00 0.00 46 1017.6
20260903192503 92 114 4.0 16.0 0.00 0.00 0.00 46 1017.6
20260903192001 92 232 6.0 14.0 0.00 0.00 0.00 46 1017.6
20260903191519 91 155 5.0 14.0 0.00 0.00 0.00 47 1017.6
20260903191004 92 184 7.0 12.0 0.00 0.00 0.00 46 1017.5
20260903190503 92 196 5.0 11.0 0.00 0.00 0.00 46 1017.4
20260903190007 92 188 6.0 16.0 0.00 0.00 0.00 47 1017.6
20260903185502 91 112 5.0 16.0 0.00 0.00 0.00 47 1017.9
20260903185004 91 128 6.0 12.0 0.00 0.00 0.00 47 1017.9
20260903184511 91 105 4.0 10.0 0.00 0.00 0.00 47 1018.0
20260903184004 91 15 4.0 14.0 0.00 0.00 0.00 48 1018.2
20260903183508 90 286 4.0 14.0 0.00 0.00 0.00 49 1018.2
20260903183007 91 119 6.0 13.0 0.00 0.00 0.00 48 1018.3
20260903182503 92 229 5.0 11.0 0.00 0.00 0.00 47 1018.4
20260903182005 92 190 4.0 11.0 0.00 0.00 0.00 47 1018.4
20260903181507 92 176 4.0 14.0 0.00 0.00 0.00 47 1018.3
20260903181004 92 190 5.0 15.0 0.00 0.00 0.00 46 1018.4
20260903180503 92 173 5.0 15.0 0.00 0.00 0.00 47 1018.4
20260903180020 92 172 4.0 10.0 0.00 0.00 0.00 48 1018.4
20260903175505 91 275 5.0 10.0 0.00 0.00 0.00 48 1018.6
20260903175005 90 168 3.0 13.0 0.00 0.00 0.00 48 1018.7
20260903174517 90 185 5.0 13.0 0.00 0.00 0.00 49 1018.7
20260903174001 90 182 6.0 12.0 0.00 0.00 0.00 49 1018.7
20260903173530 90 215 3.0 11.0 0.00 0.00 0.00 50 1018.7
20260903173011 90 209 5.0 11.0 0.00 0.00 0.00 50 1018.9
20260903172506 90 199 4.0 12.0 0.00 0.00 0.00 51 1018.8
20260903172007 90 157 6.0 10.0 0.00 0.00 0.00 51 1018.9
20260903171512 89 241 4.0 11.0 0.00 0.00 0.00 51 1018.9
20260903171003 89 125 4.0 11.0 0.00 0.00 0.00 51 1019.0
20260903170503 90 224 4.0 12.0 0.00 0.00 0.00 51 1019.0
20260903170017 89 209 3.0 12.0 0.00 0.00 0.00 51 1019.1
20260903165504 89 116 4.0 13.0 0.00 0.00 0.00 51 1019.1
20260903165005 89 144 5.0 12.0 0.00 0.00 0.00 52 1019.1
20260903164514 89 145 4.0 11.0 0.00 0.00 0.00 53 1019.2
20260903164007 88 130 5.0 9.0 0.00 0.00 0.00 53 1019.3
20260903163508 88 223 2.0 9.0 0.00 0.00 0.00 53 1019.3
20260903163011 88 200 3.0 9.0 0.00 0.00 0.00 53 1019.4
20260903162506 88 229 1.0 9.0 0.00 0.00 0.00 55 1019.4
20260903162008 88 199 4.0 9.0 0.00 0.00 0.00 55 1019.5
20260903161512 87 277 3.0 9.0 0.00 0.00 0.00 54 1019.5
20260903161005 87 217 3.0 9.0 0.00 0.00 0.00 55 1019.5
20260903160511 87 223 2.0 9.0 0.00 0.00 0.00 56 1019.5
20260903160018 87 186 3.0 8.0 0.00 0.00 0.00 57 1019.5
20260903155506 86 241 3.0 11.0 0.00 0.00 0.00 58 1019.5
20260903155009 86 217 5.0 11.0 0.00 0.00 0.00 58 1019.6
20260903154513 85 218 4.0 8.0 0.00 0.00 0.00 59 1019.5
20260903154008 85 229 4.0 8.0 0.00 0.00 0.00 59 1019.5
20260903153509 84 163 4.0 7.0 0.00 0.00 0.00 60 1019.4
20260903153015 84 273 3.0 9.0 0.00 0.00 0.00 61 1019.5
20260903152507 84 169 4.0 11.0 0.00 0.00 0.00 61 1019.5
20260903152007 84 183 5.0 11.0 0.00 0.00 0.00 61 1019.5
20260903151515 83 217 5.0 10.0 0.00 0.00 0.00 62 1019.5
20260903151007 83 266 7.0 11.0 0.00 0.00 0.00 61 1019.6
20260903150507 83 211 6.0 11.0 0.00 0.00 0.00 62 1019.5
20260903150027 83 167 4.0 11.0 0.00 0.00 0.00 62 1019.5
20260903145509 83 244 4.0 10.0 0.00 0.00 0.00 63 1019.4
20260903145008 82 163 6.0 10.0 0.00 0.00 0.00 63 1019.5
20260903144516 82 196 4.0 8.0 0.00 0.00 0.00 63 1019.5
20260903144007 82 191 5.0 9.0 0.00 0.00 0.00 64 1019.4
20260903143504 81 211 5.0 9.0 0.00 0.00 0.00 65 1019.4
20260903143024 81 239 5.0 10.0 0.00 0.00 0.00 65 1019.5
20260903142510 81 194 5.0 9.0 0.00 0.00 0.00 65 1019.6
20260903142007 81 228 4.0 8.0 0.00 0.00 0.00 67 1019.5
20260903141519 80 217 2.0 12.0 0.00 0.00 0.00 68 1019.5
20260903141010 80 223 5.0 11.0 0.00 0.00 0.00 68 1019.6
20260903140508 80 175 3.0 7.0 0.00 0.00 0.00 69 1019.6
20260903140021 79 191 3.0 9.0 0.00 0.00 0.00 70 1019.6
20260903135514 79 171 4.0 9.0 0.00 0.00 0.00 70 1019.6
20260903135010 79 202 5.0 9.0 0.00 0.00 0.00 71 1019.6
20260903134521 79 214 3.0 6.0 0.00 0.00 0.00 72 1019.6
20260903134007 78 186 3.0 6.0 0.00 0.00 0.00 73 1019.7
20260903133512 78 254 3.0 6.0 0.00 0.00 0.00 74 1019.6
20260903133020 77 209 2.0 6.0 0.00 0.00 0.00 75 1019.6
20260903132508 77 180 2.0 7.0 0.00 0.00 0.00 76 1019.7
20260903132008 76 256 3.0 7.0 0.00 0.00 0.00 78 1019.7
20260903131520 75 217 3.0 6.0 0.00 0.00 0.00 79 1019.6
20260903131009 74 175 2.0 5.0 0.00 0.00 0.00 82 1019.7
20260903130509 74 229 1.0 4.0 0.00 0.00 0.00 83 1019.6
20260903130025 73 248 1.0 4.0 0.00 0.00 0.00 86 1019.6
20260903125508 72 205 1.0 4.0 0.00 0.00 0.00 87 1019.7
20260903125012 71 200 1.0 4.0 0.00 0.00 0.00 88 1019.6
20260903124524 71 224 0.0 3.0 0.00 0.00 0.00 89 1019.6
20260903124014 70 158 0.0 2.0 0.00 0.00 0.00 90 1019.6
20260903123512 70 158 0.0 2.0 0.00 0.00 0.00 90 1019.5
20260903123026 69 159 0.0 2.0 0.00 0.00 0.00 90 1019.4
20260903122515 69 225 0.0 2.0 0.00 0.00 0.00 90 1019.3
20260903122012 69 225 0.0 2.0 0.00 0.00 0.00 90 1019.3
20260903121525 68 225 0.0 2.0 0.00 0.00 0.00 90 1019.2
20260903121011 68 225 0.0 2.0 0.00 0.00 0.00 90 1019.2
20260903120509 69 225 0.0 2.0 0.00 0.00 0.00 89 1019.1
20260903120024 69 225 1.0 2.0 0.00 0.00 0.00 89 1019.2
20260903115508 69 205 1.0 1.0 0.00 0.00 0.00 89 1019.2
20260903115003 69 205 1.0 1.0 0.00 0.00 0.00 89 1019.2
20260903114507 69 227 0.0 2.0 0.00 0.00 0.00 89 1019.1
20260903114004 69 227 0.0 2.0 0.00 0.00 0.00 89 1019.1
20260903113504 69 228 0.0 2.0 0.00 0.00 0.00 89 1019.1
20260903113012 69 227 0.0 2.0 0.00 0.00 0.00 89 1019.1
20260903112506 69 227 0.0 1.0 0.00 0.00 0.00 90 1019.1
20260903112008 69 227 1.0 1.0 0.00 0.00 0.00 89 1019.1
20260903111516 69 228 1.0 1.0 0.00 0.00 0.00 89 1019.1
20260903111007 69 227 1.0 1.0 0.00 0.00 0.00 89 1019.0
20260903110506 69 227 1.0 2.0 0.00 0.00 0.00 89 1018.9
20260903110016 69 227 0.0 2.0 0.00 0.00 0.00 88 1018.8
20260903105508 69 228 0.0 2.0 0.00 0.00 0.00 87 1018.8
20260903105007 69 228 0.0 2.0 0.00 0.00 0.00 88 1018.7
20260903104519 70 228 0.0 2.0 0.00 0.00 0.00 87 1018.7
20260903104004 70 227 1.0 2.0 0.00 0.00 0.00 87 1018.7
20260903103504 70 227 1.0 2.0 0.00 0.00 0.00 87 1018.6
20260903103008 70 202 1.0 2.0 0.00 0.00 0.00 86 1018.6
20260903102504 70 202 1.0 2.0 0.00 0.00 0.00 86 1018.6
20260903102003 70 202 0.0 1.0 0.00 0.00 0.00 86 1018.7
20260903101535 71 202 1.0 2.0 0.00 0.00 0.00 85 1018.7
20260903101005 71 202 1.0 2.0 0.00 0.00 0.00 85 1018.7
20260903100505 71 202 0.0 2.0 0.00 0.00 0.00 84 1018.7
20260903100028 71 202 0.0 2.0 0.00 0.00 0.00 84 1018.7
20260903095515 72 202 0.0 2.0 0.00 0.00 0.00 83 1018.7
20260903095009 72 202 0.0 2.0 0.00 0.00 0.00 83 1018.7
20260903094518 72 202 0.0 2.0 0.00 0.00 0.00 82 1018.7
20260903094008 73 202 0.0 2.0 0.00 0.00 0.00 82 1018.7
20260903093510 73 202 0.0 0.0 0.00 0.00 0.00 81 1018.6
20260903093027 73 202 0.0 0.0 0.00 0.00 0.00 80 1018.6
20260903092504 73 202 0.0 0.0 0.00 0.00 0.00 81 1018.6
20260903092004 73 202 0.0 2.0 0.00 0.00 0.00 81 1018.6
20260903091513 73 202 0.0 2.0 0.00 0.00 0.00 81 1018.6
20260903091007 74 202 0.0 2.0 0.00 0.00 0.00 81 1018.6
20260903090504 74 202 0.0 2.0 0.00 0.00 0.00 81 1018.7
20260903090014 74 202 0.0 2.0 0.00 0.00 0.00 80 1018.7
20260903085506 74 202 0.0 2.0 0.00 0.00 0.00 80 1018.7
20260903085009 74 202 0.0 2.0 0.00 0.00 0.00 80 1018.6
20260903084532 74 195 0.0 2.0 0.00 0.00 0.00 79 1018.5
20260903084011 74 198 0.0 2.0 0.00 0.00 0.00 79 1018.5
20260903083512 75 216 0.0 2.0 0.00 0.00 0.00 79 1018.6
20260903083026 75 203 0.0 2.0 0.00 0.00 0.00 79 1018.5
20260903082511 75 174 0.0 2.0 0.00 0.00 0.00 78 1018.5
20260903082011 75 174 0.0 2.0 0.00 0.00 0.00 78 1018.5
20260903081524 75 174 0.0 4.0 0.00 0.00 0.00 78 1018.5
20260903081002 75 214 0.0 4.0 0.00 0.00 0.00 78 1018.4
20260903080503 75 165 1.0 3.0 0.00 0.00 0.00 77 1018.4
20260903080034 76 196 2.0 3.0 0.00 0.00 0.00 77 1018.4
20260903075508 76 209 1.0 6.0 0.00 0.00 0.00 77 1018.4
20260903075006 76 184 1.0 6.0 0.00 0.00 0.00 77 1018.4
20260903074523 76 219 1.0 4.0 0.00 0.00 0.00 77 1018.3
20260903074011 76 186 1.0 4.0 0.00 0.00 0.00 77 1018.3
20260903073512 76 159 2.0 4.0 0.00 0.00 0.00 76 1018.3
20260903073026 76 192 1.0 5.0 0.00 0.00 0.00 76 1018.4
20260903072514 76 184 2.0 6.0 0.00 0.00 0.00 76 1018.4
20260903072011 76 170 2.0 6.0 0.00 0.00 0.00 76 1018.4
20260903071529 76 171 2.0 5.0 0.00 0.00 0.00 76 1018.4
20260903071014 76 123 1.0 5.0 0.00 0.00 0.00 76 1018.4
20260903070510 76 180 1.0 5.0 0.00 0.00 0.00 76 1018.4
20260903070017 76 132 1.0 5.0 0.00 0.00 0.00 75 1018.3
20260903065504 77 159 2.0 5.0 0.00 0.00 0.00 75 1018.3
20260903065007 77 196 0.0 5.0 0.00 0.00 0.00 75 1018.3
20260903064517 77 140 1.0 5.0 0.00 0.00 0.00 75 1018.3
20260903064009 77 186 1.0 5.0 0.00 0.00 0.00 74 1018.4
20260903063511 77 172 2.0 4.0 0.00 0.00 0.00 74 1018.4
20260903063025 77 161 2.0 5.0 0.00 0.00 0.00 74 1018.5
20260903062511 77 169 2.0 6.0 0.00 0.00 0.00 74 1018.5
20260903062012 78 213 2.0 6.0 0.00 0.00 0.00 74 1018.6
20260903061527 78 165 2.0 9.0 0.00 0.00 0.00 73 1018.5
20260903061014 78 200 1.0 9.0 0.00 0.00 0.00 73 1018.5
20260903060513 78 126 2.0 6.0 0.00 0.00 0.00 73 1018.5
20260903060029 78 150 2.0 9.0 0.00 0.00 0.00 73 1018.5
20260903055512 78 242 3.0 9.0 0.00 0.00 0.00 73 1018.5
20260903055011 78 138 4.0 9.0 0.00 0.00 0.00 73 1018.5
20260903054516 78 217 3.0 7.0 0.00 0.00 0.00 73 1018.5
20260903054008 78 191 4.0 6.0 0.00 0.00 0.00 73 1018.5
20260903053506 78 211 3.0 8.0 0.00 0.00 0.00 73 1018.5
20260903053024 78 178 4.0 8.0 0.00 0.00 0.00 73 1018.5
20260903052512 78 211 3.0 8.0 0.00 0.00 0.00 73 1018.5
20260903052014 78 187 3.0 6.0 0.00 0.00 0.00 73 1018.5
20260903051526 78 184 2.0 7.0 0.00 0.00 0.00 73 1018.4
20260903051011 78 155 2.0 7.0 0.00 0.00 0.00 73 1018.4
20260903050516 78 152 3.0 7.0 0.00 0.00 0.00 73 1018.3
20260903050031 78 169 2.0 7.0 0.00 0.00 0.00 73 1018.4
20260903045513 78 162 2.0 7.0 0.00 0.00 0.00 73 1018.4
20260903045015 78 192 2.0 4.0 0.00 0.00 0.00 72 1018.3
20260903044535 78 157 2.0 5.0 0.00 0.00 0.00 72 1018.3
20260903044014 79 157 2.0 6.0 0.00 0.00 0.00 72 1018.3
20260903043507 79 160 3.0 7.0 0.00 0.00 0.00 71 1018.3
20260903043024 79 173 2.0 7.0 0.00 0.00 0.00 71 1018.3
20260903042510 79 227 2.0 7.0 0.00 0.00 0.00 71 1018.3
20260903042012 79 115 2.0 8.0 0.00 0.00 0.00 71 1018.4
20260903041510 79 205 2.0 8.0 0.00 0.00 0.00 71 1018.4
20260903041003 79 161 3.0 8.0 0.00 0.00 0.00 70 1018.5
20260903040503 79 237 3.0 8.0 0.00 0.00 0.00 70 1018.5
20260903040009 79 175 2.0 8.0 0.00 0.00 0.00 70 1018.5
20260903035503 79 217 3.0 8.0 0.00 0.00 0.00 70 1018.6
20260903035004 79 156 3.0 8.0 0.00 0.00 0.00 70 1018.6
20260903034510 79 198 3.0 9.0 0.00 0.00 0.00 70 1018.6
20260903034007 79 159 3.0 9.0 0.00 0.00 0.00 70 1018.6
20260903033508 79 165 2.0 8.0 0.00 0.00 0.00 70 1018.6
20260903033017 79 193 1.0 7.0 0.00 0.00 0.00 70 1018.6
20260903032508 79 157 2.0 7.0 0.00 0.00 0.00 70 1018.6
20260903032009 79 232 1.0 7.0 0.00 0.00 0.00 69 1018.6
20260903031524 79 201 3.0 7.0 0.00 0.00 0.00 69 1018.6
20260903031012 80 153 2.0 5.0 0.00 0.00 0.00 69 1018.7
20260903030513 80 200 1.0 5.0 0.00 0.00 0.00 69 1018.6
20260903030004 80 165 2.0 5.0 0.00 0.00 0.00 69 1018.6
20260903025503 80 199 1.0 6.0 0.00 0.00 0.00 68 1018.6
20260903025003 80 169 2.0 6.0 0.00 0.00 0.00 68 1018.6
20260903024511 80 240 1.0 5.0 0.00 0.00 0.00 68 1018.6
20260903024004 80 151 1.0 4.0 0.00 0.00 0.00 68 1018.6
20260903023504 80 198 2.0 4.0 0.00 0.00 0.00 68 1018.5
20260903023011 80 149 1.0 4.0 0.00 0.00 0.00 68 1018.5
20260903022516 80 192 2.0 5.0 0.00 0.00 0.00 67 1018.5
20260903022008 80 220 1.0 4.0 0.00 0.00 0.00 67 1018.6
20260903021518 81 185 1.0 4.0 0.00 0.00 0.00 67 1018.5
20260903021011 81 225 1.0 4.0 0.00 0.00 0.00 67 1018.4
20260903020511 81 180 1.0 3.0 0.00 0.00 0.00 66 1018.3
20260903020031 81 166 1.0 4.0 0.00 0.00 0.00 66 1018.2
20260903015512 81 195 1.0 4.0 0.00 0.00 0.00 66 1018.2
20260903015011 81 216 1.0 4.0 0.00 0.00 0.00 65 1018.2
20260903014507 82 241 2.0 5.0 0.00 0.00 0.00 65 1018.1
20260903014006 82 234 1.0 6.0 0.00 0.00 0.00 65 1018.1
20260903013503 82 194 1.0 6.0 0.00 0.00 0.00 65 1018.0
20260903013008 82 229 3.0 5.0 0.00 0.00 0.00 64 1017.9
20260903012505 82 153 1.0 5.0 0.00 0.00 0.00 64 1017.8
20260903012010 82 174 2.0 5.0 0.00 0.00 0.00 64 1017.8
20260903011516 83 171 1.0 4.0 0.00 0.00 0.00 63 1017.8